Regional Weather Roundup
Issued by NWS

Home | Current Version | Previous Version | Graphics & Text | Print | Product List | Glossary On
Versions: 1 2 3 4 5 6 7 8 9 10 11 12 13 14 15 16 17 18 19 20 21 22 23 24 25 26 27 28 29 30 31 32 33 34 35 36 37 38 39 40 41 42 43 44 45 46 47 48 49 50
000
ASUS45 KPSR 290210
RWRAZ

ARIZONA REGIONAL HOURLY WEATHER ROUNDUP
NATIONAL WEATHER SERVICE PHOENIX AZ
700 PM MST SAT MAR 28 2015

NOTE: FAIR INDICATES FEW OR NO CLOUDS BELOW 12,000 FEET WITH NO
SIGNIFICANT WEATHER AND/OR OBSTRUCTIONS TO VISIBILITY.

AZZ001>003-036-290300-
NORTHWEST ARIZONA

CITY           SKY/WX    TMP DP  RH WIND       PRES   REMARKS
BULLHEAD CITY  CLEAR     91  18   6 SE9       29.89S
KINGMAN        CLEAR     72  24  16 SW10      30.07S
$$

AZZ004>008-015-016-018-290300-
NORTH CENTRAL ARIZONA

CITY           SKY/WX    TMP DP  RH WIND       PRES   REMARKS
GRAND CANYON   CLEAR     60  15  17 W3        30.24R
WILLIAMS       CLEAR     61  18  18 SW10      30.32R
PRESCOTT       CLEAR     65  16  15 SW7       30.18R
FLAGSTAFF      CLEAR     57  18  21 SW9       30.27S
PAYSON         CLEAR     66  19  16 CALM      30.20S
PAGE           CLEAR     77  18  11 W7        30.05S
$$

AZZ009>014-017-290300-
NORTHEAST ARIZONA

CITY           SKY/WX    TMP DP  RH WIND       PRES   REMARKS
WINSLOW        CLEAR     69  13  11 SW13      30.13S
SAINT JOHNS    CLEAR     68  -6   5 SW14      30.16R
WINDOW ROCK    CLEAR     60   6  11 SW5       30.22R
SHOW LOW       CLEAR     59   9  13 SW7       30.27R
$$

AZZ023-290300-
GREATER PHOENIX AREA

CITY           SKY/WX    TMP DP  RH WIND       PRES   REMARKS
PHOENIX        PTCLDY    91  13   5 NW8       29.93S
BUCKEYE        CLEAR     82  37  20 SE3       29.94S
GLENDALE       PTCLDY    90  23   9 SE3       29.95S
LUKE AFB       CLEAR     88  21   8 CALM      29.92F
DEER VALLEY    CLEAR     85  22  10 SW5       29.95S
SCOTTSDALE     CLEAR     87  20   8 CALM      29.97S
MESA-FALCON    PTCLDY    88  16   7 CALM        N/A
MESA-GATEWAY   PTCLDY    86  21   9 N5        29.98S
$$

AZZ027-028-290300-
SOUTHWEST MARICOPA COUNTY AND PINAL COUNTY

CITY           SKY/WX    TMP DP  RH WIND       PRES   REMARKS
CASA GRANDE    CLEAR     82  23  11 CALM      29.95S
GILA BEND      FAIR      89  19   7 N5        29.91S
$$

AZZ503-504-507>509-290300-
SOUTHEAST ARIZONA

CITY           SKY/WX    TMP DP  RH WIND       PRES   REMARKS
TUCSON         PTCLDY    84  19   9 NW3       30.05R
DAVIS-MONTHAN  CLEAR     80  19  10 NW6       30.03
RYAN FIELD       N/A     84  28  13 NW6       30.03
NOGALES        CLEAR     78  17  10 NW3       30.11R
SIERRA VISTA   CLEAR     69  19  14 W9        30.16R
DOUGLAS        CLEAR     69  24  18 N10       30.11R
SAFFORD        CLEAR     78   8   7 NW9       30.03S
$$

AZZ020-021-025-026-031-290300-
SOUTHWEST ARIZONA

CITY           SKY/WX    TMP DP  RH WIND       PRES   REMARKS
YUMA           PTCLDY    92  27   9 CALM      29.89S
$$

CAZ031-033-041-043-047-048-061-290300-
SOUTHERN CALIFORNIA

CITY           SKY/WX    TMP DP  RH WIND       PRES   REMARKS
DOWNTOWN L.A.  CLEAR     70  57  63 CALM      30.00S
L.A. AIRPORT   PTCLDY    62  58  86 W9        30.02R
SAN DIEGO      PTCLDY    68  57  68 NW6       30.02S
BURBANK        CLEAR     79  39  23 S6        30.00S
ONTARIO        PTCLDY    80  37  21 W9        30.00S
RIVERSIDE      CLEAR     79  37  22 W10       30.00R
PALM SPRINGS   CLEAR     93  31  11 NW13      29.90R
EL CENTRO NAS  CLEAR     89  41  18 S13       29.86R
IMPERIAL       PTCLDY    92  38  15 SE7       29.86R
BLYTHE         CLEAR     89  35  14 E6        29.88S
NEEDLES        CLEAR     92  14   5 SW9       29.90S
$$

NVZ020-UTZ003-290300-
SOUTHERN NEVADA-UTAH

CITY           SKY/WX    TMP DP  RH WIND       PRES   REMARKS
LAS VEGAS      CLEAR     86   9   5 SW12      29.92S
SALT LAKE CITY PTCLDY    64  36  35 NW12      30.14R
$$

NMZ009-TXZ055-290300-
NEW MEXICO-WEST TEXAS

CITY           SKY/WX    TMP DP  RH WIND       PRES   REMARKS
ALBUQUERQUE    CLEAR     73  10   9 W10       30.08S
EL PASO        CLEAR     82  -4   3 W18G24    30.05S
$$


........................KEY........................
SKY/WX - SKY CONDITION/WEATHER
TMP    - TEMPERATURE IN FAHRENHEIT
DP     - DEW POINT IN FAHRENHEIT
RH     - RELATIVE HUMIDITY IN PERCENT
WIND   - DIRECTION AND SPEED IN MILES PER HOUR (MPH)
VRB    - VARIABLE WIND DIRECTION
PRES   - MEAN SEA LEVEL PRESSURE IN INCHES OF MERCURY
         F - FALLING PRESSURE   R - RISING PRESSURE
         S - STEADY PRESSURE
VSB    - VISIBILITY IN MILES
HX     - HEAT INDEX IN FAHRENHEIT
WCI    - WIND CHILL INDEX IN FAHRENHEIT
TC     - TEMPERATURE IN CELSIUS WHICH IS ALSO KNOWN AS
         TEMPERATURE IN CENTIGRADE
AFB    - AIR FORCE BASE
         LUKE AFB IS LUKE AIR FORCE BASE
         DAVIS-MONTHAN IS DAVIS-MONTHAN AIR FORCE BASE
NAS    - NAVAL AIR STATION
         EL CENTRO NAS IS EL CENTRO NAVAL AIR STATION
N/A    - NOT AVAILABLE




USA.gov is the U.S. government's official web portal to all federal, state and local government web resources and services.